Domov               UVHVVR             MKGP            O straneh              
ZDRAVSTVENO VARSTVO RASTLIN
  MREŽA AGROMET. POSTAJ
 ► PROGNOSTIČNA OBVESTILA
AGROMETEOROLOŠKI PODATKI -
ARSO
OBVLADOVANJE TVEGANJ ZARADI
NEUGODNIH VREMENSKIH RAZMER
  ► NARAVNE NESREČE
  ► SUŠA/MOČA
  ► NAMAKANJE
  ► ŽLED (gozdarstvo)
KARTOGRAFSKI PRIKAZI
SPLETNE POVEZAVE
PROJEKTI IN PUBLIKACIJE

AGROMETEOROLOŠKA MREŽA: VREMENSKE POSTAJE IN FENOLOŠKA OPAZOVANJA

Pregled podatkov za lokacijo Kasaze (Mirosan), meteorološka postaja 27394

Pregled senzorjev na lokaciji

ID Ime Zadnja
vrednost
Datum
zadnje
spremembe
Tip
senzorja
521 Temperatura 2 m ( °C) 24,79 °C 24.6.2017 22:30 Generic -40 - +60 °C
522 Relativna vlaga 2 m (% RH) 74,65 % RH 24.6.2017 22:30 Generic 0 - 100 %
546 Omočenost lista (U) 0 U 24.6.2017 22:30 A730WET
4028 Padavine 0.2 mm (mm) 0 mm 24.6.2017 22:30 Generic 0.2 mm

Pregled podatkov zadnjih 24 ur

Zap.
št.
Datum in čas Kasaze (Mirosan)
Omočenost
lista
Padavine
0.2
mm
Relativna
vlaga
2
m
Temperatura
2
m
0 24.6.2017 21:30 0 0 74,65 24,79
1 24.6.2017 21:00 0 0 78,27 24,88
2 24.6.2017 20:30 0 0 74,29 25,86
3 24.6.2017 20:00 0 0 72,06 26,35
4 24.6.2017 19:30 0 0 72,75 27,13
5 24.6.2017 19:00 0 0 66,35 29,28
6 24.6.2017 18:30 0 0 60,61 30,38
7 24.6.2017 18:00 0 0 58,56 30,74
8 24.6.2017 17:30 0 0 61,93 28,94
9 24.6.2017 17:00 0 0 61,1 29,55
10 24.6.2017 16:30 0 0 59,12 28,89
11 24.6.2017 16:00 0 0 59,27 29,13
12 24.6.2017 15:30 0 0 55,36 30,01
13 24.6.2017 15:00 0 0 52,36 31,87
14 24.6.2017 14:30 0 0 47,94 33,26
15 24.6.2017 14:00 0 0 52,21 32,36
16 24.6.2017 13:30 0 0 52,58 32,01
17 24.6.2017 13:00 0 0 53,33 31,36
18 24.6.2017 12:30 0 0 53,6 30,55
19 24.6.2017 12:00 0 0 56,61 29,99
20 24.6.2017 11:30 0 0 54,43 29,6
21 24.6.2017 11:00 0 0 54,82 29,26
22 24.6.2017 10:30 0 0 53,63 28,74
23 24.6.2017 10:00 0 0 55,85 27,99
24 24.6.2017 09:30 0 0 60,95 26,96
25 24.6.2017 09:00 0 0 61,73 26,11
26 24.6.2017 08:30 0 0 65,18 25,32
27 24.6.2017 08:00 0 0 70,48 24,64
28 24.6.2017 07:30 0 0 74,95 23,39
29 24.6.2017 07:00 0 0 81,03 22,15
30 24.6.2017 06:30 0 0 86,81 20,15
31 24.6.2017 06:00 3 0 93,53 18,71
32 24.6.2017 05:30 10 0 98,17 17,53
33 24.6.2017 05:00 10 0 97,83 17
34 24.6.2017 04:30 10 0 97,51 16,75
35 24.6.2017 04:00 10 0 96,92 16,85
36 24.6.2017 03:30 10 0 96,48 17,09
37 24.6.2017 03:00 10 0 95,97 17,58
38 24.6.2017 02:30 9 0 95,21 18,02
39 24.6.2017 02:00 10 0 94,63 18,24
40 24.6.2017 01:30 10 0 95,38 17,97
41 24.6.2017 01:00 8 0 94,14 18,44
42 24.6.2017 00:30 4 0 90,67 18,93
43 24.6.2017 00:00 5 0 91,31 18,95
44 23.6.2017 23:30 5 0 92,23 19,07
45 23.6.2017 23:00 4 0 91,5 19,24
© 2011 Ministrstvo za kmetijstvo, gozdarstvo in prehrano. Vse pravice pridržane.